Accueil
METAR-TAF:

METAR-TAF

Aéroports :

Tri-City Airport

Parsons, Kansas, États-Unis

latitude: 37-19-40N, longitude: 095-30-15W, altitude: 274 m

Observation

Le bulletin a été fait il y a 18 minutes, à 07:52 UTC
Vent calme
Température 17°C
Humidité 100%
Pression 1015 hPa
Visibilité: 16.1 km
Nuages fragmentés à une hauteur de 3300 ft

METAR: KPPF 240752Z AUTO 00000KT 10SM BKN033 17/17 A2996 RMK AO2 SLP135 T01720167

Heure: 03:10 (08:10 UTC)


TAF: absent

Observations et prévisions météorologiques de plus de 4000 aéroports (messages METAR et TAF).

Les stations disponibles sont représentées par des disques jaunes et rouges sur la carte.

Passer la souris dessus pour voir le nom de la station.

Cliquer dessus pour voir les observations et prévisions météorologiques.

Pour changer de carte: cliquez sur les boutons verts avec une croix noire pour zoomer, sur le bouton vert avec un tiret pour effectuer un zoom arrière, ou sur les flèches vertes pour les cartes adjacentes.


METAR-TAF: